period_start,C,m1,H,J0,J1,J2,J3,J4,J5,JA,JB,JC,JD,JJ,JK,JN,#
2018-06-11 00:02:31,0.12,4.34,0.00,31.21,34.97,37.50,13.63,49.81,1015.08,1989.96,1932.50,2119.21,2411.26,600.28,579.35,54.63,0000 0000 0000 0000 000000
2018-06-11 00:07:33,0.13,4.34,0.00,31.21,34.97,37.52,13.52,49.39,1014.98,1989.94,1930.95,2118.28,2410.04,600.09,578.97,54.68,0000 0000 0000 0000 000000
2018-06-11 00:12:34,0.11,4.35,0.00,31.23,34.98,37.53,13.50,49.53,1014.99,1989.88,1929.45,2117.21,2408.82,599.34,578.36,54.73,0000 0000 0000 0000 000000
2018-06-11 00:17:35,0.14,4.36,0.00,31.26,34.99,37.53,13.52,49.59,1014.83,1989.71,1927.76,2116.12,2407.50,600.00,578.92,54.78,0000 0000 0000 0000 000000
2018-06-11 00:22:37,0.12,4.36,0.00,31.27,35.00,37.55,13.54,49.46,1014.78,1989.57,1926.06,2115.02,2406.19,599.96,578.90,54.83,0000 0000 0000 0000 000000
2018-06-11 00:27:38,0.13,4.37,0.00,31.26,35.00,37.56,13.56,49.55,1014.71,1989.60,1924.49,2114.00,2404.95,599.84,578.63,54.88,0000 0000 0000 0000 000000
2018-06-11 00:32:39,0.19,4.38,0.00,31.27,35.01,37.55,13.53,49.57,1014.70,1989.62,1922.47,2112.73,2403.44,599.73,578.49,54.93,0000 0000 0000 0000 000000
2018-06-11 00:37:41,0.13,4.39,0.00,31.29,35.02,37.57,13.46,49.49,1014.68,1989.36,1920.54,2111.40,2401.86,599.91,578.91,54.98,0000 0000 0000 0000 000000
2018-06-11 00:42:42,0.10,4.39,0.00,31.30,35.03,37.59,13.42,49.21,1014.71,1989.17,1919.12,2110.60,2400.70,599.24,577.97,55.03,0000 0000 0000 0000 000000
2018-06-11 00:47:44,0.07,4.40,0.00,31.31,35.04,37.59,13.60,49.67,1014.85,1989.14,1917.95,2109.88,2399.82,600.96,579.58,55.08,0000 0000 0000 0000 000000
2018-06-11 00:52:45,0.14,4.40,0.00,31.32,35.05,37.60,13.57,49.52,1014.87,1989.14,1916.60,2108.94,2398.69,600.21,579.07,55.13,0000 0000 0000 0000 000000
2018-06-11 00:57:46,0.16,4.41,0.00,31.33,35.05,37.61,13.46,49.48,1014.88,1989.08,1914.92,2107.78,2397.36,599.97,578.82,55.18,0000 0000 0000 0000 000000
2018-06-11 01:02:47,0.21,4.42,0.00,31.35,35.07,37.61,13.60,49.57,1015.01,1989.07,1912.56,2106.31,2395.57,600.17,578.93,55.23,0000 0000 0000 0000 000000
2018-06-11 01:07:48,0.17,4.43,0.00,31.36,35.07,37.63,13.45,49.60,1015.04,1989.14,1910.51,2104.91,2393.91,600.07,578.84,55.28,0000 0000 0000 0000 000000
2018-06-11 01:12:50,0.16,4.44,0.00,31.38,35.08,37.64,13.53,49.66,1014.83,1989.05,1908.69,2103.72,2392.51,600.05,578.67,55.33,0000 0000 0000 0000 000000
2018-06-11 01:17:51,0.15,4.44,0.00,31.38,35.10,37.65,13.52,49.48,1014.69,1989.02,1906.95,2102.50,2391.07,600.07,578.59,55.38,0000 0000 0000 0000 000000
2018-06-11 01:22:52,0.13,4.45,0.00,31.39,35.10,37.65,13.49,49.46,1014.68,1989.01,1905.50,2101.58,2389.84,599.97,578.55,55.43,0000 0000 0000 0000 000000
2018-06-11 01:27:54,0.10,4.46,0.00,31.40,35.12,37.67,13.52,49.50,1014.68,1989.00,1904.15,2100.70,2388.83,599.66,578.18,55.48,0000 0000 0000 0000 000000
2018-06-11 01:32:55,0.10,4.46,0.00,31.40,35.12,37.69,13.53,49.53,1014.67,1989.00,1902.89,2099.92,2387.85,599.93,578.46,55.53,0000 0000 0000 0000 000000
2018-06-11 01:37:56,0.13,4.47,0.00,31.41,35.14,37.70,13.57,49.72,1014.66,1989.00,1901.64,2098.98,2386.77,600.05,578.43,55.58,0000 0000 0000 0000 000000
2018-06-11 01:42:58,0.12,4.48,0.00,31.40,35.15,37.72,13.54,49.64,1014.66,1989.00,1900.25,2098.04,2385.69,599.94,578.52,55.63,0000 0000 0000 0000 000000
2018-06-11 01:47:59,0.13,4.48,0.00,31.42,35.15,37.72,13.61,49.95,1014.66,1989.00,1898.79,2097.11,2384.58,600.69,579.06,55.68,0000 0000 0000 0000 000000
2018-06-11 01:53:00,0.12,4.49,0.00,31.45,35.17,37.71,13.56,49.58,1014.66,1989.00,1897.47,2096.20,2383.49,599.74,578.10,55.73,0000 0000 0000 0000 000000
2018-06-11 01:58:01,0.10,4.49,0.00,31.46,35.18,37.71,13.50,49.82,1014.66,1989.00,1896.35,2095.47,2382.56,599.84,578.11,55.78,0000 0000 0000 0000 000000
2018-06-11 02:03:02,0.10,4.50,0.00,31.45,35.19,37.74,13.45,49.76,1014.65,1989.00,1895.14,2094.61,2381.51,599.76,578.14,55.83,0000 0000 0000 0000 000000
2018-06-11 02:08:03,0.09,4.51,0.00,31.46,35.20,37.74,13.63,50.01,1014.61,1988.99,1893.93,2093.89,2380.57,600.69,578.97,55.88,0000 0000 0000 0000 000000
2018-06-11 02:13:05,0.11,4.51,0.00,31.49,35.21,37.76,13.51,49.68,1014.58,1988.99,1892.72,2093.06,2379.68,599.64,577.85,55.93,0000 0000 0000 0000 000000
2018-06-11 02:18:06,0.12,4.52,0.00,31.51,35.22,37.77,13.52,49.83,1014.61,1988.98,1891.55,2092.24,2378.64,600.12,578.29,55.98,0000 0000 0000 0000 000000
2018-06-11 02:23:08,0.13,4.52,0.00,31.52,35.23,37.76,13.49,49.67,1014.64,1988.96,1889.93,2091.17,2377.38,600.05,578.22,56.03,0000 0000 0000 0000 000000
2018-06-11 02:28:09,0.13,4.53,0.00,31.52,35.25,37.79,13.48,49.81,1014.64,1988.97,1888.41,2090.14,2376.22,599.93,578.18,56.08,0000 0000 0000 0000 000000
2018-06-11 02:33:10,0.13,4.54,0.00,31.54,35.25,37.79,13.54,49.83,1014.65,1988.95,1886.85,2089.13,2375.00,599.96,578.13,56.13,0000 0000 0000 0000 000000
2018-06-11 02:38:12,0.13,4.54,0.00,31.55,35.27,37.82,13.50,49.63,1014.63,1988.96,1885.51,2088.24,2373.84,599.62,577.79,56.19,0000 0000 0000 0000 000000
2018-06-11 02:43:13,0.11,4.55,0.00,31.56,35.28,37.82,13.49,49.79,1014.61,1988.84,1884.04,2087.21,2372.68,600.31,578.44,56.24,0000 0000 0000 0000 000000
2018-06-11 02:48:14,0.11,4.56,0.00,31.58,35.30,37.83,13.54,49.78,1014.62,1988.69,1882.78,2086.34,2371.64,600.04,578.27,56.29,0000 0000 0000 0000 000000
2018-06-11 02:53:15,0.07,4.56,0.00,31.60,35.31,37.84,13.52,49.72,1014.61,1988.33,1881.66,2085.50,2370.66,599.97,577.94,56.34,0000 0000 0000 0000 000000
2018-06-11 02:58:17,0.09,4.56,0.00,31.62,35.32,37.85,13.53,49.65,1014.61,1988.15,1880.43,2084.71,2369.65,599.68,577.73,56.39,0000 0000 0000 0000 000000
2018-06-11 03:03:18,0.09,4.57,0.00,31.62,35.34,37.87,13.46,49.57,1014.55,1988.13,1879.10,2083.86,2368.71,599.73,577.72,56.44,0000 0000 0000 0000 000000
2018-06-11 03:08:19,0.09,4.57,0.00,31.65,35.35,37.88,13.54,49.93,1014.46,1988.07,1878.12,2083.07,2367.85,600.57,578.33,56.49,0000 0000 0000 0000 000000
2018-06-11 03:13:20,0.13,4.58,0.00,31.68,35.37,37.90,13.55,49.93,1014.47,1988.14,1876.84,2082.34,2366.93,600.28,578.02,56.54,0000 0000 0000 0000 000000
2018-06-11 03:18:22,0.14,4.59,0.00,31.70,35.39,37.91,13.46,49.83,1014.27,1988.04,1875.26,2081.15,2365.67,599.71,577.42,56.59,0000 0000 0000 0000 000000
2018-06-11 03:23:23,0.21,4.60,0.00,31.71,35.41,37.95,13.54,49.85,1014.20,1988.02,1873.09,2079.66,2363.89,600.73,578.33,56.64,0000 0000 0000 0000 000000
2018-06-11 03:28:24,0.21,4.61,0.00,31.75,35.42,37.98,13.52,50.09,1014.20,1988.00,1870.80,2078.06,2361.92,599.84,577.38,56.69,0000 0000 0000 0000 000000
2018-06-11 03:33:25,0.21,4.62,0.00,31.75,35.45,38.00,13.54,50.01,1014.19,1988.00,1868.42,2076.47,2360.01,600.10,577.70,56.74,0000 0000 0000 0000 000000
2018-06-11 03:38:26,0.21,4.63,0.00,31.77,35.46,38.01,13.64,50.17,1014.18,1988.00,1866.15,2074.91,2358.13,600.63,578.00,56.79,0000 0000 0000 0000 000000
2018-06-11 03:43:27,0.19,4.64,0.00,31.80,35.47,38.03,13.59,49.99,1014.20,1987.96,1864.04,2073.43,2356.32,600.40,577.99,56.84,0000 0000 0000 0000 000000
2018-06-11 03:48:29,0.18,4.65,0.00,31.82,35.50,38.05,13.45,49.87,1014.18,1987.66,1861.62,2071.78,2354.30,600.00,577.45,56.89,0000 0000 0000 0000 000000
2018-06-11 03:53:30,0.18,4.66,0.00,31.85,35.51,38.07,13.52,50.00,1014.18,1987.28,1859.26,2070.20,2352.35,600.08,577.38,56.94,0000 0000 0000 0000 000000
2018-06-11 03:58:31,0.22,4.67,0.00,31.86,35.52,38.08,13.48,49.89,1014.18,1987.08,1856.68,2068.50,2350.33,600.00,577.35,56.99,0000 0000 0000 0000 000000
2018-06-11 04:03:33,0.22,4.68,0.00,31.88,35.54,38.10,13.45,49.86,1014.18,1987.02,1854.44,2066.86,2348.37,599.29,576.60,57.04,0000 0000 0000 0000 000000
2018-06-11 04:08:34,0.24,4.69,0.00,31.90,35.55,38.12,13.51,50.04,1014.18,1987.00,1851.80,2065.15,2346.20,599.79,577.09,57.09,0000 0000 0000 0000 000000
2018-06-11 04:13:35,0.26,4.70,0.00,31.92,35.57,38.14,13.58,49.95,1014.18,1987.00,1848.90,2063.34,2343.96,600.07,577.38,57.14,0000 0000 0000 0000 000000
2018-06-11 04:18:36,0.26,4.72,0.00,31.95,35.58,38.16,13.58,50.09,1014.18,1987.00,1846.06,2061.48,2341.72,600.29,577.54,57.19,0000 0000 0000 0000 000000
2018-06-11 04:23:37,0.26,4.73,0.00,31.96,35.60,38.18,13.42,49.88,1014.18,1987.00,1843.29,2059.67,2339.51,599.77,576.91,57.24,0000 0000 0000 0000 000000
2018-06-11 04:28:39,0.21,4.74,0.00,31.98,35.61,38.20,13.52,49.77,1014.18,1986.97,1840.75,2058.06,2337.53,599.90,576.91,57.29,0000 0000 0000 0000 000000
2018-06-11 04:33:40,0.21,4.75,0.00,32.00,35.62,38.21,13.55,49.92,1014.18,1986.97,1838.56,2056.62,2335.75,600.09,577.06,57.34,0000 0000 0000 0000 000000
2018-06-11 04:38:41,0.18,4.76,0.00,32.02,35.64,38.22,13.51,50.01,1014.17,1986.93,1836.40,2055.18,2333.96,599.82,576.93,57.39,0000 0000 0000 0000 000000
2018-06-11 04:43:42,0.19,4.77,0.00,32.03,35.65,38.25,13.53,50.23,1014.16,1986.84,1834.21,2053.75,2332.29,599.92,576.93,57.44,0000 0000 0000 0000 000000
2018-06-11 04:48:43,0.16,4.78,0.00,32.05,35.67,38.26,13.46,50.03,1014.17,1986.66,1832.29,2052.51,2330.71,599.52,576.53,57.49,0000 0000 0000 0000 000000
2018-06-11 04:53:45,0.11,4.79,0.00,32.07,35.68,38.28,13.50,50.17,1014.17,1986.56,1830.72,2051.47,2329.50,600.48,577.39,57.54,0000 0000 0000 0000 000000
2018-06-11 04:58:46,0.14,4.80,0.00,32.09,35.70,38.29,13.57,50.36,1014.17,1986.34,1828.96,2050.34,2328.13,600.06,577.00,57.59,0000 0000 0000 0000 000000
2018-06-11 05:03:47,0.13,4.80,0.00,32.10,35.71,38.30,13.52,50.49,1014.17,1986.20,1827.53,2049.33,2326.81,600.33,577.23,57.64,0000 0000 0000 0000 000000
2018-06-11 05:08:49,0.15,4.81,0.00,32.11,35.73,38.32,13.45,50.01,1014.17,1986.17,1825.79,2048.32,2325.57,599.54,576.42,57.69,0000 0000 0000 0000 000000
2018-06-11 05:13:50,0.12,4.82,0.00,32.13,35.75,38.34,13.50,50.02,1014.17,1986.04,1824.38,2047.19,2324.32,599.89,576.80,57.74,0000 0000 0000 0000 000000
2018-06-11 05:18:51,0.14,4.82,0.00,32.15,35.76,38.35,13.47,50.20,1014.17,1986.00,1822.74,2046.46,2323.02,599.67,576.41,57.79,0000 0000 0000 0000 000000
2018-06-11 05:23:53,0.15,4.83,0.00,32.15,35.78,38.37,13.46,50.04,1014.17,1986.00,1821.16,2045.42,2321.72,599.62,576.42,57.84,0000 0000 0000 0000 000000
2018-06-11 05:28:54,0.14,4.84,0.00,32.16,35.80,38.37,13.45,50.03,1014.17,1986.00,1819.60,2044.41,2320.51,599.86,576.64,57.89,0000 0000 0000 0000 000000
2018-06-11 05:33:55,0.13,4.84,0.00,32.17,35.81,38.39,13.47,50.08,1014.17,1986.00,1818.22,2043.49,2319.40,599.94,576.71,57.94,0000 0000 0000 0000 000000
2018-06-11 05:38:57,0.14,4.85,0.00,32.18,35.83,38.40,13.48,50.07,1014.17,1986.00,1816.69,2042.42,2318.11,599.96,576.64,57.99,0000 0000 0000 0000 000000
2018-06-11 05:43:58,0.14,4.86,0.00,32.20,35.85,38.41,13.47,50.11,1014.17,1985.99,1815.18,2041.44,2316.87,599.98,576.71,58.04,0000 0000 0000 0000 000000
2018-06-11 05:48:59,0.11,4.87,0.00,32.20,35.86,38.43,13.51,50.02,1014.17,1985.98,1813.85,2040.54,2315.84,600.21,576.80,58.09,0000 0000 0000 0000 000000
2018-06-11 05:54:01,0.10,4.87,0.00,32.22,35.88,38.44,13.52,50.25,1014.17,1985.94,1812.61,2039.80,2314.78,599.68,576.35,58.14,0000 0000 0000 0000 000000
2018-06-11 05:59:02,0.10,4.88,0.00,32.23,35.90,38.45,13.50,50.45,1014.17,1985.86,1811.47,2038.97,2313.84,599.78,576.45,58.20,0000 0000 0000 0000 000000
2018-06-11 06:04:03,0.11,4.88,0.00,32.25,35.91,38.47,13.48,50.18,1014.16,1985.75,1810.22,2038.06,2312.81,600.04,576.66,58.25,0000 0000 0000 0000 000000
2018-06-11 06:09:05,0.12,4.89,0.00,32.26,35.93,38.47,13.47,50.34,1014.14,1985.46,1808.81,2037.13,2311.59,599.88,576.54,58.30,0000 0000 0000 0000 000000
2018-06-11 06:14:06,0.10,4.90,0.00,32.27,35.95,38.50,13.46,50.14,1014.14,1985.29,1807.57,2036.20,2310.57,599.74,576.37,58.35,0000 0000 0000 0000 000000
2018-06-11 06:19:07,0.11,4.90,0.00,32.29,35.97,38.51,13.53,50.42,1014.16,1985.14,1806.25,2035.31,2309.45,599.90,576.46,58.40,0000 0000 0000 0000 000000
2018-06-11 06:24:08,0.16,4.91,0.00,32.31,35.99,38.52,13.47,50.22,1014.17,1985.17,1804.62,2034.28,2308.22,599.56,576.00,58.45,0000 0000 0000 0000 000000
2018-06-11 06:29:10,0.11,4.91,0.00,32.34,36.00,38.54,13.51,50.09,1014.17,1985.08,1803.26,2033.26,2307.05,600.67,576.94,58.50,0000 0000 0000 0000 000000
2018-06-11 06:34:11,0.11,4.92,0.00,32.37,36.02,38.55,13.45,50.32,1014.16,1985.04,1802.01,2032.47,2306.11,599.90,576.24,58.55,0000 0000 0000 0000 000000
2018-06-11 06:39:12,0.07,4.93,0.00,32.39,36.04,38.57,13.53,50.20,1014.16,1985.01,1801.11,2032.00,2305.24,599.75,576.02,58.60,0000 0000 0000 0000 000000
2018-06-11 06:44:14,0.06,4.93,0.00,32.40,36.05,38.59,13.47,49.81,1014.12,1985.00,1800.58,2031.54,2304.92,599.99,576.34,58.65,0000 0000 0000 0000 000000
2018-06-11 06:49:15,0.05,4.93,0.00,32.44,36.07,38.61,13.50,50.09,1014.08,1985.00,1799.97,2031.01,2304.18,600.20,576.26,58.70,0000 0000 0000 0000 000000
2018-06-11 06:54:16,0.07,4.93,0.00,32.45,36.09,38.62,13.56,50.82,1013.96,1985.00,1799.20,2030.63,2303.89,600.06,576.20,58.75,0000 0000 0000 0000 000000
2018-06-11 06:59:17,0.04,4.94,0.00,32.48,36.10,38.65,13.44,50.27,1013.81,1985.00,1798.98,2030.05,2303.21,599.53,575.54,58.80,0000 0000 0000 0000 000000
2018-06-11 07:04:18,0.03,4.94,0.00,32.52,36.11,38.66,13.43,50.45,1013.71,1984.98,1798.26,2029.97,2302.99,600.07,575.88,58.85,0000 0000 0000 0000 000000
2018-06-11 07:09:20,0.04,4.94,0.00,32.56,36.13,38.68,13.50,50.31,1013.82,1984.98,1797.97,2029.54,2302.74,599.87,575.78,58.90,0000 0000 0000 0000 000000
2018-06-11 07:14:21,0.07,4.94,0.00,32.58,36.15,38.68,13.49,50.42,1014.03,1984.99,1797.26,2028.96,2301.99,600.59,576.46,58.95,0000 0000 0000 0000 000000
2018-06-11 07:19:22,0.13,4.95,0.00,32.61,36.16,38.71,13.57,50.21,1014.05,1984.95,1796.07,2028.05,2300.76,599.89,575.75,59.00,0000 0000 0000 0000 000000
2018-06-11 07:24:24,0.07,4.96,0.00,32.64,36.18,38.73,13.42,50.13,1013.97,1984.82,1795.51,2027.27,2300.03,599.85,575.65,59.05,0000 0000 0000 0000 000000
2018-06-11 07:29:25,0.00,4.96,0.00,32.67,36.19,38.74,13.41,49.93,1014.01,1984.61,1795.01,2027.00,2299.72,599.54,575.50,59.10,0000 0000 0000 0000 000000
2018-06-11 07:34:26,-0.01,4.96,0.00,32.71,36.20,38.75,13.48,50.33,1014.08,1984.28,1794.77,2026.83,2299.06,600.61,576.33,59.15,0000 0000 0000 0000 000000
2018-06-11 07:39:28,0.05,4.96,0.00,32.74,36.22,38.77,13.48,49.86,1014.12,1984.16,1794.09,2026.25,2298.98,599.64,575.36,59.20,0000 0000 0000 0000 000000
2018-06-11 07:44:29,0.02,4.96,0.00,32.77,36.24,38.80,13.45,49.98,1014.17,1984.10,1793.98,2026.00,2298.57,600.25,575.79,59.25,0000 0000 0000 0000 000000
2018-06-11 07:49:30,0.02,4.96,0.00,32.80,36.25,38.81,13.49,50.38,1014.17,1984.02,1793.62,2025.96,2298.03,600.00,575.64,59.30,0000 0000 0000 0000 000000
2018-06-11 07:54:31,0.06,4.96,0.00,32.83,36.28,38.84,13.41,50.13,1014.17,1984.00,1793.01,2025.28,2297.83,599.73,575.34,59.35,0000 0000 0000 0000 000000
2018-06-11 07:59:32,0.05,4.97,0.00,32.86,36.30,38.86,13.39,49.97,1014.20,1984.00,1792.61,2025.01,2297.11,599.87,575.32,59.40,0000 0000 0000 0000 000000
2018-06-11 08:04:33,0.03,4.97,0.00,32.89,36.32,38.89,13.41,50.09,1014.20,1984.00,1792.12,2024.83,2296.94,599.75,575.01,59.45,0000 0000 0000 0000 000000
2018-06-11 08:09:34,0.10,4.97,0.00,32.92,36.34,38.92,13.48,49.88,1014.20,1984.00,1791.49,2024.07,2296.13,599.88,575.20,59.50,0000 0000 0000 0000 000000
2018-06-11 08:14:36,0.10,4.98,0.00,32.95,36.36,38.95,13.41,49.85,1014.20,1983.98,1790.68,2023.35,2295.28,599.62,575.12,59.55,0000 0000 0000 0000 000000
2018-06-11 08:19:37,0.11,4.98,0.00,32.97,36.39,38.98,13.47,50.36,1014.19,1983.97,1789.76,2022.38,2294.21,600.18,575.37,59.61,0000 0000 0000 0000 000000
2018-06-11 08:24:38,0.08,4.99,0.00,33.00,36.41,39.00,13.43,50.10,1014.19,1983.83,1788.96,2021.49,2293.10,599.55,574.80,59.66,0000 0000 0000 0000 000000
2018-06-11 08:29:40,0.03,4.99,0.00,33.03,36.43,39.03,13.47,50.30,1014.20,1983.31,1788.30,2020.63,2292.03,599.88,575.03,59.71,0000 0000 0000 0000 000000
2018-06-11 08:34:41,0.07,4.99,0.00,33.06,36.45,39.06,13.43,50.13,1014.24,1983.13,1787.31,2019.78,2291.09,600.11,575.26,59.76,0000 0000 0000 0000 000000
2018-06-11 08:39:42,0.05,5.00,0.00,33.08,36.48,39.09,13.52,50.28,1014.33,1983.01,1787.03,2019.11,2290.58,600.69,575.75,59.81,0000 0000 0000 0000 000000
2018-06-11 08:44:43,0.03,5.00,0.00,33.10,36.50,39.11,13.44,50.28,1014.59,1983.00,1786.59,2018.96,2290.01,600.82,576.06,59.86,0000 0000 0000 0000 000000
2018-06-11 08:49:45,0.08,5.00,0.00,33.11,36.53,39.13,13.40,49.92,1014.65,1983.00,1786.03,2018.36,2289.54,599.47,574.62,59.91,0000 0000 0000 0000 000000
2018-06-11 08:54:46,0.04,5.00,0.00,33.14,36.55,39.16,13.45,49.87,1014.66,1983.00,1785.33,2018.01,2289.01,600.00,575.31,59.96,0000 0000 0000 0000 000000
2018-06-11 08:59:47,0.03,4.01,0.00,33.18,36.58,39.19,12.07,44.11,1014.66,1983.60,2102.44,2219.52,2528.25,537.63,515.45,0.00,0000 0000 0000 0000 000002
2018-06-11 09:04:48,0.07,0.00,0.00,33.20,36.61,39.20,13.45,47.14,1014.68,1986.00,3366.15,3023.98,3486.27,600.51,575.53,0.02,0000 0000 0000 0000 000000
2018-06-11 09:09:50,0.07,0.00,0.00,33.22,36.64,39.23,13.40,47.18,1014.69,1986.00,3363.79,3022.77,3484.80,599.90,575.05,0.07,0000 0000 0000 0000 000000
2018-06-11 09:14:51,0.07,0.00,0.00,33.26,36.66,39.26,13.40,47.17,1014.72,1985.99,3362.17,3021.72,3483.32,599.74,574.75,0.12,0000 0000 0000 0000 000000
2018-06-11 09:19:52,0.08,0.01,0.00,33.28,36.69,39.30,13.44,47.11,1014.99,1985.96,3360.48,3020.49,3481.70,599.98,575.05,0.17,0000 0000 0000 0000 000000
2018-06-11 09:24:54,0.15,0.01,0.00,33.31,36.72,39.33,13.38,47.18,1015.15,1985.70,3356.42,3016.79,3477.40,599.88,575.15,0.22,0000 0000 0000 0000 000000
2018-06-11 09:29:55,0.23,0.03,0.00,33.36,36.74,39.35,13.39,47.19,1015.15,1985.55,3351.57,3012.09,3471.93,599.76,574.83,0.27,0000 0000 0000 0000 000000
2018-06-11 09:34:56,0.21,0.04,0.00,33.39,36.77,39.37,13.43,47.25,1015.17,1985.12,3347.44,3008.25,3467.27,599.99,575.01,0.32,0000 0000 0000 0000 000000
2018-06-11 09:39:58,0.49,0.06,0.00,33.43,36.79,39.38,13.35,47.22,1015.33,1985.03,3339.70,3000.89,3458.59,599.92,574.91,0.37,0000 0000 0000 0000 000000
2018-06-11 09:44:59,0.32,0.08,0.00,33.47,36.82,39.38,13.38,47.33,1015.60,1985.00,3333.22,2994.44,3451.24,599.99,575.19,0.42,0000 0000 0000 0000 000000
2018-06-11 09:50:01,0.47,0.10,0.00,33.50,36.85,39.37,13.39,47.38,1015.64,1985.00,3326.60,2987.51,3443.21,599.90,574.98,0.47,0000 0000 0000 0000 000000
2018-06-11 09:55:02,0.38,0.12,0.00,33.54,36.87,39.38,13.42,47.41,1015.64,1984.99,3319.53,2980.32,3434.82,600.02,575.00,0.52,0000 0000 0000 0000 000000
2018-06-11 10:00:03,0.12,0.13,0.00,33.57,36.90,39.40,13.38,47.45,1015.65,1984.82,3316.17,2977.20,3431.15,600.08,575.03,0.57,0000 0000 0000 0000 000000
2018-06-11 10:05:05,0.14,0.14,0.00,33.59,36.93,39.43,13.38,47.51,1015.66,1984.45,3313.11,2974.45,3427.89,599.98,574.81,0.62,0000 0000 0000 0000 000000
2018-06-11 10:10:06,0.26,0.15,0.00,33.60,36.95,39.46,13.34,47.44,1015.69,1984.09,3308.47,2970.07,3422.86,599.83,574.75,0.67,0000 0000 0000 0000 000000
2018-06-11 10:15:07,0.20,0.16,0.00,33.60,36.98,39.50,13.51,47.75,1015.65,1984.01,3304.42,2966.28,3418.44,600.11,575.04,0.72,0000 0000 0000 0000 000000
2018-06-11 10:20:09,0.18,0.17,0.00,33.61,37.01,39.53,13.37,47.70,1015.69,1984.00,3301.38,2963.42,3415.18,599.93,574.86,0.77,0000 0000 0000 0000 000000
2018-06-11 10:25:10,0.16,0.18,0.00,33.62,37.03,39.54,13.49,47.75,1016.04,1984.00,3298.25,2960.50,3411.70,600.21,575.30,0.82,0000 0000 0000 0000 000000
2018-06-11 10:30:11,0.09,0.19,0.00,33.62,37.06,39.54,13.52,47.83,1016.09,1984.00,3296.19,2958.92,3409.78,600.17,575.25,0.87,0000 0000 0000 0000 000000
2018-06-11 10:35:13,0.17,0.19,0.00,33.63,37.09,39.53,13.47,47.84,1016.03,1983.99,3293.47,2956.64,3407.06,600.22,575.33,0.92,0000 0000 0000 0000 000000
2018-06-11 10:40:14,0.10,0.20,0.00,33.65,37.11,39.58,13.44,47.81,1016.00,1983.80,3290.75,2954.17,3404.07,600.08,575.07,0.97,0000 0000 0000 0000 000000
2018-06-11 10:45:15,0.01,0.20,0.00,33.63,37.14,39.51,13.46,47.91,1016.11,1983.30,3289.41,2953.05,3402.67,600.05,575.14,1.03,0000 0000 0000 0000 000000
2018-06-11 10:50:17,0.05,0.21,0.00,33.63,37.17,39.52,13.45,47.83,1016.13,1983.10,3288.00,2952.05,3401.49,599.84,574.91,1.08,0000 0000 0000 0000 000000
2018-06-11 10:55:18,0.10,0.21,0.00,33.61,37.20,39.57,13.47,47.81,1016.13,1983.03,3286.29,2950.67,3399.71,600.18,575.40,1.13,0000 0000 0000 0000 000000
2018-06-11 11:00:19,0.09,0.22,0.00,33.57,37.24,39.66,13.43,47.73,1016.14,1983.00,3284.40,2949.15,3397.81,600.12,575.24,1.18,0000 0000 0000 0000 000000
2018-06-11 11:05:21,0.07,0.22,0.00,33.52,37.27,39.70,13.47,47.73,1016.22,1983.00,3282.80,2947.93,3396.36,600.35,575.70,1.23,0000 0000 0000 0000 000000
2018-06-11 11:10:22,0.06,0.22,0.00,33.48,37.30,39.77,13.49,47.81,1016.16,1982.99,3281.51,2946.88,3395.05,600.13,575.53,1.28,0000 0000 0000 0000 000000
2018-06-11 11:15:23,0.06,0.23,0.00,33.43,37.32,39.77,13.49,47.83,1016.18,1982.95,3280.10,2945.92,3393.73,599.97,575.46,1.33,0000 0000 0000 0000 000000
2018-06-11 11:20:24,0.03,0.23,0.00,33.38,37.35,39.79,13.46,47.88,1016.37,1982.71,3278.82,2945.06,3392.63,599.90,575.47,1.38,0000 0000 0000 0000 000000
2018-06-11 11:25:26,0.04,0.23,0.00,33.34,37.36,39.82,13.46,47.88,1016.55,1982.44,3277.71,2944.26,3391.71,600.14,576.01,1.43,0000 0000 0000 0000 000000
2018-06-11 11:30:27,0.02,0.23,0.00,33.30,37.38,39.83,13.52,47.79,1016.65,1982.24,3276.60,2943.79,3390.96,600.04,576.05,1.48,0000 0000 0000 0000 000000
2018-06-11 11:35:28,0.03,0.23,0.00,33.25,37.39,40.11,13.55,47.73,1017.44,1982.05,3275.46,2943.03,3390.09,599.86,576.57,1.53,0000 0000 0000 0000 000000
2018-06-11 11:40:29,0.05,0.24,0.00,33.21,37.40,40.35,13.56,47.90,1017.46,1982.04,3274.37,2942.26,3389.18,600.29,576.92,1.58,0000 0000 0000 0000 000000
2018-06-11 11:45:31,0.04,0.24,0.00,33.15,37.40,40.50,13.54,47.83,1017.61,1982.00,3273.33,2941.77,3388.29,599.87,576.66,1.63,0000 0000 0000 0000 000000
2018-06-11 11:50:32,0.04,0.24,0.00,33.10,37.40,40.43,13.54,47.83,1017.64,1982.00,3272.41,2941.06,3387.74,600.04,576.88,1.68,0000 0000 0000 0000 000000
2018-06-11 11:55:33,0.02,0.24,0.00,33.06,37.39,40.37,13.58,47.96,1017.61,1982.00,3271.63,2940.87,3387.01,600.03,577.07,1.73,0000 0000 0000 0000 000000
2018-06-11 12:00:35,0.05,0.24,0.00,33.01,37.38,40.23,13.50,47.85,1017.66,1982.00,3270.56,2940.08,3386.14,599.75,576.88,1.78,0000 0000 0000 0000 000000
2018-06-11 12:05:36,0.05,0.25,0.00,32.98,37.35,40.01,13.53,47.83,1017.93,1982.00,3269.43,2939.46,3385.30,600.06,577.40,1.83,0000 0000 0000 0000 000000
2018-06-11 12:10:37,0.05,0.25,0.00,32.94,37.34,39.85,13.46,47.64,1017.88,1982.00,3268.15,2938.69,3384.20,599.96,577.36,1.88,0000 0000 0000 0000 000000
2018-06-11 12:15:39,0.04,0.25,0.00,32.91,37.31,39.78,13.49,47.83,1017.94,1982.00,3267.06,2937.99,3383.24,599.96,577.47,1.93,0000 0000 0000 0000 000000
2018-06-11 12:20:40,0.03,0.25,0.00,32.89,37.29,39.77,13.55,47.86,1017.96,1982.01,3266.15,2937.35,3382.87,600.09,577.62,1.98,0000 0000 0000 0000 000000
2018-06-11 12:25:41,0.02,0.25,0.00,32.86,37.26,39.66,13.52,47.82,1018.06,1982.01,3265.70,2937.03,3382.20,599.93,577.57,2.03,0000 0000 0000 0000 000000
2018-06-11 12:30:43,0.07,0.26,0.00,32.85,37.23,39.67,13.50,47.80,1018.08,1982.08,3264.13,2936.21,3381.14,599.92,577.66,2.08,0000 0000 0000 0000 000000
2018-06-11 12:35:44,0.06,0.26,0.00,32.85,37.20,39.59,13.52,47.88,1018.08,1982.38,3263.05,2935.80,3380.30,599.83,577.40,2.13,0000 0000 0000 0000 000000
2018-06-11 12:40:46,0.07,0.26,0.00,32.84,37.17,39.57,13.51,47.88,1018.03,1982.65,3262.12,2935.05,3379.81,599.75,577.44,2.18,0000 0000 0000 0000 000000
2018-06-11 12:45:47,0.03,0.27,0.00,32.82,37.14,39.51,13.51,47.92,1018.02,1982.88,3261.49,2934.96,3379.08,599.85,577.40,2.23,0000 0000 0000 0000 000000
2018-06-11 12:50:48,0.01,0.27,0.00,32.82,37.11,39.45,13.49,47.88,1018.08,1982.94,3261.01,2934.85,3378.99,600.01,577.74,2.28,0000 0000 0000 0000 000000
2018-06-11 12:55:50,0.02,0.27,0.00,32.81,37.09,39.43,13.50,47.99,1018.08,1982.96,3260.84,2934.44,3378.76,600.02,577.79,2.33,0000 0000 0000 0000 000000